TimeCST,TemperatureF,Dew PointF,Humidity,Sea Level PressureIn,VisibilityMPH,Wind Direction,Wind SpeedMPH,Gust SpeedMPH,PrecipitationIn,Events,Conditions,WindDirDegrees,DateUTC
12:55 AM,33.8,28.9,82,30.25,10.0,SE,9.2,-,N/A,,Clear,140,2012-11-29 06:55:00
1:55 AM,32.0,28.9,88,30.25,10.0,SE,6.9,-,N/A,,Clear,140,2012-11-29 07:55:00
2:55 AM,32.7,29.8,89,30.25,10.0,SE,8.1,-,N/A,,Clear,140,2012-11-29 08:55:00
3:55 AM,32.9,30.0,89,30.25,10.0,SSE,8.1,-,N/A,,Clear,150,2012-11-29 09:55:00
4:55 AM,32.2,30.2,92,30.25,10.0,SE,6.9,-,N/A,,Clear,130,2012-11-29 10:55:00
5:55 AM,32.0,30.6,94,30.25,10.0,SE,10.4,-,N/A,,Clear,140,2012-11-29 11:55:00
6:55 AM,32.2,30.7,94,30.25,10.0,SE,9.2,-,N/A,,Clear,140,2012-11-29 12:55:00
7:55 AM,36.0,32.0,86,30.24,10.0,SSE,10.4,-,N/A,,Clear,160,2012-11-29 13:55:00
8:55 AM,41.2,33.3,73,30.23,10.0,SSE,10.4,-,N/A,,Clear,150,2012-11-29 14:55:00
9:55 AM,46.9,34.0,61,30.21,10.0,SSE,11.5,-,N/A,,Clear,150,2012-11-29 15:55:00
10:55 AM,55.6,32.5,42,30.19,10.0,South,10.4,17.3,N/A,,Clear,190,2012-11-29 16:55:00
11:55 AM,58.5,32.2,37,30.16,10.0,Variable,5.8,-,N/A,,Clear,0,2012-11-29 17:55:00
12:55 PM,59.7,33.6,37,30.13,10.0,South,9.2,17.3,N/A,,Clear,180,2012-11-29 18:55:00
1:55 PM,61.9,33.3,34,30.11,10.0,South,12.7,17.3,N/A,,Clear,170,2012-11-29 19:55:00
2:55 PM,62.4,28.6,28,30.10,10.0,South,8.1,17.3,N/A,,Clear,190,2012-11-29 20:55:00
3:55 PM,59.4,29.7,32,30.11,10.0,South,9.2,-,N/A,,Clear,190,2012-11-29 21:55:00
4:55 PM,55.8,30.7,39,30.10,10.0,SSE,10.4,-,N/A,,Clear,160,2012-11-29 22:55:00
5:55 PM,52.9,30.6,43,30.10,10.0,SSE,8.1,-,N/A,,Clear,160,2012-11-29 23:55:00
6:55 PM,51.3,31.1,46,30.10,10.0,SSE,11.5,-,N/A,,Clear,160,2012-11-30 00:55:00
7:55 PM,52.0,30.9,45,30.10,10.0,South,12.7,-,N/A,,Clear,170,2012-11-30 01:55:00
8:55 PM,51.1,31.1,46,30.09,10.0,South,10.4,-,N/A,,Clear,170,2012-11-30 02:55:00
9:55 PM,49.3,31.1,50,30.10,10.0,South,9.2,-,N/A,,Clear,170,2012-11-30 03:55:00
10:55 PM,47.8,30.6,51,30.10,10.0,South,6.9,-,N/A,,Clear,170,2012-11-30 04:55:00
11:55 PM,47.1,31.3,54,30.11,10.0,South,6.9,-,N/A,,Clear,180,2012-11-30 05:55:00